Location: Glendale
(37.4556°N, 88.6714°W)
Time: 18:04:26
(UTC+00:00)

Envisat - Pass Details

Date: 08 December 2019
Orbit: 764 x 766 km, 98.1° (Epoch: 27 January)

Event Time Altitude Azimuth Distance (km) Brightness Sun altitude
Rises 00:25:20 0° 183° (S) 3,216 6.4 -21.0°
Reaches altitude 10° 00:27:44 10° 190° (S) 2,295 5.7 -21.5°
Maximum altitude 00:32:31 43° 262° (W) 1,073 4.2 -22.4°
Drops below altitude 10° 00:37:21 10° 333° (NNW) 2,310 5.6 -23.3°
Sets 00:39:47 0° 340° (NNW) 3,240 6.4 -23.8°
